Simultaneous Nadir Overpasses (SNOs) Predictions

Prediction of SNOs between FY3D and TERRA Satellite Orbit:

Table of predicted SNOs for the next 14.0 days since TLE Epoch: 3/21/2020
Index Date (FY3D) Time (FY3D) Lat,Lon (FY3D) SZA (FY3D ) Date (TERRA) Time (TERRA) Lat,Lon (TERRA) SZA (TERRA ) Distance(km) Time Diff (sec)
1 03/21/2020 12:49:33 -68.82, 166.75 111.81 03/21/2020 12:50:27 -68.85, 166.70 111.80 3.32 54
2 03/21/2020 13:40:17 68.75, -25.84 68.10 03/21/2020 13:39:54 68.73, -25.80 68.08 2.73 23
3 03/21/2020 14:30:45 -67.91, 142.57 112.78 03/21/2020 14:29:36 -67.96, 140.90 112.69 69.86 69
4 03/24/2020 05:05:58 -68.86, -77.39 112.84 03/24/2020 05:06:55 -68.84, -77.42 112.86 2.47 57
5 03/24/2020 05:56:41 68.74, 90.08 67.03 03/24/2020 05:56:22 68.72, 90.08 67.01 1.67 19
6 03/24/2020 06:47:12 -68.05,-101.71 113.69 03/24/2020 06:46:02 -68.07,-103.09 113.65 57.35 70
7 03/26/2020 21:22:23 -68.90, 38.46 113.85 03/26/2020 21:23:22 -68.89, 38.52 113.87 3.08 59
8 03/26/2020 22:13:05 68.73,-154.00 65.96 03/26/2020 22:12:50 68.71,-154.05 65.95 2.91 15
9 03/26/2020 23:03:38 -68.15, 14.08 114.65 03/26/2020 23:02:27 -68.22, 12.99 114.55 45.92 71
10 03/29/2020 13:38:46 -68.89, 154.38 114.91 03/29/2020 13:39:49 -68.87, 154.39 114.93 1.98 63
11 03/29/2020 14:29:29 68.77, -38.15 64.96 03/29/2020 14:29:16 68.75, -38.11 64.94 2.80 13
12 03/29/2020 15:20:03 -68.24, 129.86 115.60 03/29/2020 15:18:52 -68.32, 128.99 115.50 36.78 71
13 04/01/2020 05:55:10 -68.88, -89.71 115.96 04/01/2020 05:56:17 -68.86, -89.74 115.99 3.16 67
14 04/01/2020 06:45:53 68.76, 77.77 63.91 04/01/2020 06:45:43 68.79, 77.82 63.93 3.21 10
15 04/01/2020 07:36:30 -68.40,-114.43 116.48 04/01/2020 07:35:17 -68.47,-114.94 116.40 22.30 73
16 04/03/2020 22:11:34 -68.88, 26.21 116.99 04/03/2020 22:12:44 -68.89, 26.19 116.98 1.59 70
17 04/03/2020 23:02:17 68.76,-166.32 62.88 04/03/2020 23:02:11 68.76,-166.32 62.88 0.36 6
18 04/03/2020 23:52:56 -68.50, 1.34 117.40 04/03/2020 23:51:43 -68.56, 1.06 117.34 13.30 73




NCC Satellite Simultaneous Nadir Overpasses (SNOs) Prediction Service
